map of TAZ home
Great Circle Mapper logo
TAZ - Airport
Location
City:  Dashoguz, Turkmenistan
Near (Alt.):Khodzhakumbet
ICAO / IATA:UTAT / TAZ

Details
Type:Airport (Aerodrome, Airfield)
Use:Public/Civil
Latitude:4145'40"N (41.761111)
Longitude:5949'36"E (59.826667)
Datum:WGS 1984
Elevation:272 ft (83 m)
Variation:6.2E (WMM2015 magnetic declination)
Runways:2
Longest:8858 × 138 ft (2700 × 42 m), paved

Time
Time Zone:UTC+5
Local Time:

Weather
METAR:UTAT 200900Z 02003MPS CAVOK 05/01 Q1022 99CLRD70 NOSIG
TAF:UTAT 200730Z 2009/2021 VRB02MPS CAVOK 530005
TEMPO 2009/2012 09006MPS

Related Locations
Nearby:
Farthest:IPC: 11257 mi / 18117 km
Easter Island (Isla de Pascua, Rapa Nui) [Mataveri Intl], VS, CL

Find:

   beyond  
but within

Other Information
Maps:
NOTAMs:
Links:
Sources:

  
flag of Turkmenistan   

Sectional Chart

Flight Planning
at skyvector.com

Satellite Image

Google Maps Satellite View

 

Copyright © 2004-2014 Karl L. Swartz. All rights reserved.
The Great Circle Mapper name and logo are trademarks of the Great Circle Mapper.
All other trademarks mentioned herein belong to their respective owners.
Please see credits for attibutions and further copyright information.

  Follow gcmap on Facebook Follow gcmap on Twitter

hCard Microformat

Geo Microformat